Twentynine Palms, CA

12:22 AM PDT on July 27, 2017 (GMT -0700)
Twentynine Palms Expeditionary Air Field

Weather History for KNXP - March, 2013

Change the Weather History Date:

Friday, March 29, 2013

  Actual Average Record
Temperature  
Mean Temperature 68 °F -  
Max Temperature 82 °F 71 °F 90 °F (2015)
Min Temperature 53 °F 50 °F 42 °F (2003)
Cooling Degree Days 2    
Growing Degree Days 18 (Base 50)    
Moisture  
Dew Point 33 °F    
Average Humidity 28    
Maximum Humidity 47    
Minimum Humidity 14    
Precipitation  
Precipitation 0.00 in - - ()
Sea Level Pressure  
Sea Level Pressure 30.04 in    
Wind  
Wind Speed 7 mph (SW)    
Max Wind Speed 15 mph    
Max Gust Speed 20 mph    
Visibility 10 miles    
Events      
Averages and records for this station are not official NWS values.
T = Trace of Precipitation, MM = Missing Value Source: NWS Daily Summary

Daily Weather History Graph

Daily Weather History Graph

Search for Another Location

Airport or City:

Trip Planner

Search our weather history database for the weather conditions in past years. The results will help you decide how hot, cold, wet, or windy it might be!

Date:

Astronomy

Mar. 29, 2013 Rise Set
Actual Time 6:35 AM PDT 7:03 PM PDT
Civil Twilight 6:10 AM PDT 7:28 PM PDT
Nautical Twilight 5:40 AM PDT 7:58 PM PDT
Astronomical Twilight 5:10 AM PDT 8:28 PM PDT
Moon 9:59 PM PDT (3/29) 7:55 AM PDT (3/29)
Length of Visible Light 13h 18m
Length of Day
12h 28m
Waning Gibbous, 93% of the Moon is Illuminated
Mar 29
Waning Gibbous
Apr 2
Last Quarter
Apr 10
New
Apr 18
First Quarter
Apr 25
Full

Hourly Weather History & Observations

Time (PDT) Temp. Dew Point Humidity Pressure Visibility Wind Dir Wind Speed Gust Speed Precip Events Conditions
12:56 AM 64.0 °F 35.1 °F 34% 30.03 in 10.0 mi WNW 8.1 mph - N/A   Clear
1:56 AM 63.0 °F 34.0 °F 34% 30.03 in 10.0 mi West 9.2 mph - N/A   Clear
2:56 AM 61.0 °F 35.1 °F 38% 30.03 in 10.0 mi West 9.2 mph - N/A   Clear
3:56 AM 59.0 °F 34.0 °F 39% 30.04 in 10.0 mi WNW 6.9 mph - N/A   Clear
4:56 AM 57.0 °F 33.1 °F 40% 30.04 in 10.0 mi NW 4.6 mph - N/A   Clear
5:56 AM 54.0 °F 33.1 °F 45% 30.06 in 10.0 mi NW 4.6 mph - N/A   Clear
6:56 AM 53.1 °F 33.1 °F 47% 30.08 in 10.0 mi Calm Calm - N/A   Clear
7:56 AM 59.0 °F 34.0 °F 39% 30.10 in 10.0 mi West 10.4 mph - N/A   Clear
8:56 AM 63.0 °F 34.0 °F 34% 30.10 in 10.0 mi Calm Calm - N/A   Clear
9:56 AM 70.0 °F 35.1 °F 28% 30.10 in 10.0 mi Calm Calm - N/A   Clear
10:56 AM 73.9 °F 34.0 °F 23% 30.09 in 10.0 mi Calm Calm - N/A   Clear
11:56 AM 75.9 °F 33.1 °F 21% 30.08 in 10.0 mi ESE 4.6 mph - N/A   Clear
12:56 PM 78.1 °F 33.1 °F 19% 30.06 in 10.0 mi SE 9.2 mph - N/A   Clear
1:56 PM 81.0 °F 32.0 °F 17% 30.03 in 10.0 mi East 8.1 mph - N/A   Clear
2:56 PM 81.0 °F 30.9 °F 16% 30.01 in 10.0 mi SE 9.2 mph - N/A   Clear
3:56 PM 82.0 °F 28.0 °F 14% 29.99 in 10.0 mi SE 10.4 mph 16.1 mph N/A   Clear
4:56 PM 81.0 °F 32.0 °F 17% 29.98 in 10.0 mi SSW 13.8 mph 19.6 mph N/A   Clear
5:56 PM 79.0 °F 32.0 °F 18% 29.99 in 10.0 mi SSW 13.8 mph - N/A   Clear
6:56 PM 77.0 °F 34.0 °F 21% 29.99 in 10.0 mi SW 13.8 mph - N/A   Clear
7:56 PM 75.0 °F 34.0 °F 22% 29.99 in 10.0 mi SW 15.0 mph - N/A   Clear
8:56 PM 72.0 °F 33.1 °F 24% 30.02 in 10.0 mi South 4.6 mph - N/A   Clear
9:56 PM 71.1 °F 33.1 °F 25% 30.03 in 10.0 mi Calm Calm - N/A   Clear
10:56 PM 68.0 °F 34.0 °F 28% 30.03 in 10.0 mi SSE 4.6 mph - N/A   Clear
11:56 PM 70.0 °F 37.0 °F 30% 30.03 in 10.0 mi South 5.8 mph - N/A   Clear